TimeMST,TemperatureF,Dew PointF,Humidity,Sea Level PressureIn,VisibilityMPH,Wind Direction,Wind SpeedMPH,Gust SpeedMPH,PrecipitationIn,Events,Conditions,WindDirDegrees,DateUTC
12:55 AM,64.4,53.6,68,29.87,10.0,SSW,4.6,-,N/A,,Clear,210,2012-10-12 07:55:00
1:15 AM,64.4,53.6,68,29.87,10.0,South,6.9,-,N/A,,Clear,190,2012-10-12 08:15:00
1:35 AM,64.4,53.6,68,29.87,10.0,SE,3.5,-,N/A,,Clear,130,2012-10-12 08:35:00
1:55 AM,62.6,53.6,72,29.88,10.0,Calm,Calm,-,N/A,,Clear,0,2012-10-12 08:55:00
2:15 AM,64.4,53.6,68,29.88,10.0,East,4.6,-,N/A,,Mostly Cloudy,100,2012-10-12 09:15:00
2:35 AM,64.4,53.6,68,29.89,10.0,WSW,3.5,-,N/A,,Mostly Cloudy,250,2012-10-12 09:35:00
2:55 AM,64.4,48.2,56,29.91,8.0,SSW,18.4,29.9,N/A,,Mostly Cloudy,200,2012-10-12 09:55:00
3:15 AM,62.6,51.8,68,29.91,10.0,SE,12.7,-,N/A,,Mostly Cloudy,130,2012-10-12 10:15:00
3:35 AM,60.8,51.8,72,29.91,10.0,ESE,9.2,-,N/A,,Mostly Cloudy,110,2012-10-12 10:35:00
3:55 AM,60.8,51.8,72,29.92,10.0,ESE,10.4,-,N/A,,Overcast,110,2012-10-12 10:55:00
4:15 AM,60.8,50.0,68,29.93,6.0,SSE,16.1,23.0,0.01,Rain,Light Rain,160,2012-10-12 11:15:00
4:35 AM,59.0,50.0,72,29.93,10.0,SE,20.7,24.2,0.01,,Mostly Cloudy,140,2012-10-12 11:35:00
4:55 AM,59.0,50.0,72,29.94,9.0,Calm,Calm,-,0.02,,Mostly Cloudy,0,2012-10-12 11:55:00
5:15 AM,59.0,50.0,72,29.94,10.0,SW,3.5,-,N/A,,Mostly Cloudy,230,2012-10-12 12:15:00
5:35 AM,59.0,50.0,72,29.94,10.0,Calm,Calm,-,N/A,,Partly Cloudy,0,2012-10-12 12:35:00
5:55 AM,59.0,50.0,72,29.95,10.0,Calm,Calm,-,N/A,,Clear,0,2012-10-12 12:55:00
6:15 AM,59.0,51.8,77,29.96,10.0,South,4.6,-,N/A,,Clear,170,2012-10-12 13:15:00
6:35 AM,59.0,53.6,82,29.97,10.0,SE,5.8,-,N/A,,Partly Cloudy,130,2012-10-12 13:35:00
6:55 AM,57.2,53.6,88,29.97,10.0,ESE,8.1,-,N/A,,Partly Cloudy,120,2012-10-12 13:55:00
7:15 AM,59.0,51.8,77,29.97,10.0,ESE,8.1,-,N/A,,Clear,120,2012-10-12 14:15:00
7:55 AM,59.0,50.0,72,29.99,10.0,SSE,5.8,-,N/A,,Clear,160,2012-10-12 14:55:00
8:15 AM,60.8,50.0,68,29.99,10.0,SSW,5.8,-,N/A,,Clear,210,2012-10-12 15:15:00
8:35 AM,60.8,50.0,68,30.01,10.0,SW,4.6,-,N/A,,Clear,220,2012-10-12 15:35:00
9:15 AM,62.6,50.0,63,30.03,10.0,SW,3.5,-,N/A,,Clear,220,2012-10-12 16:15:00
9:35 AM,62.6,51.8,68,30.04,10.0,Calm,Calm,-,N/A,,Clear,0,2012-10-12 16:35:00
9:55 AM,64.4,50.0,59,30.04,10.0,South,11.5,-,N/A,,Clear,180,2012-10-12 16:55:00
10:15 AM,66.2,48.2,52,30.05,10.0,South,8.1,-,N/A,,Clear,180,2012-10-12 17:15:00
10:35 AM,66.2,48.2,52,30.05,10.0,South,6.9,-,N/A,,Clear,170,2012-10-12 17:35:00
10:55 AM,66.2,48.2,52,30.05,10.0,South,8.1,-,N/A,,Clear,190,2012-10-12 17:55:00
11:35 AM,68.0,46.4,46,30.06,10.0,South,5.8,-,N/A,,Clear,180,2012-10-12 18:35:00
11:55 AM,68.0,46.4,46,30.06,10.0,South,9.2,-,N/A,,Clear,190,2012-10-12 18:55:00
12:35 PM,68.0,46.4,46,30.05,10.0,SSW,8.1,-,N/A,,Clear,200,2012-10-12 19:35:00
1:15 PM,69.8,46.4,43,30.04,10.0,Calm,Calm,-,N/A,,Mostly Cloudy,0,2012-10-12 20:15:00
1:55 PM,68.0,46.4,46,30.04,10.0,West,8.1,-,N/A,,Scattered Clouds,280,2012-10-12 20:55:00
2:15 PM,66.2,48.2,52,30.04,4.0,SE,18.4,23.0,0.01,Rain,Light Rain,140,2012-10-12 21:15:00
2:35 PM,62.6,50.0,63,30.04,6.0,South,11.5,-,0.05,Rain-Thunderstorm,Light Thunderstorms and Rain,190,2012-10-12 21:35:00
2:55 PM,62.6,50.0,63,30.04,10.0,ESE,15.0,-,0.05,Thunderstorm,Thunderstorm,120,2012-10-12 21:55:00
3:15 PM,64.4,48.2,56,30.04,10.0,ESE,15.0,20.7,N/A,,Mostly Cloudy,120,2012-10-12 22:15:00
3:35 PM,66.2,48.2,52,30.04,10.0,ESE,15.0,-,N/A,,Scattered Clouds,110,2012-10-12 22:35:00
4:15 PM,68.0,48.2,49,30.03,10.0,SE,10.4,-,N/A,,Scattered Clouds,130,2012-10-12 23:15:00
4:55 PM,68.0,50.0,52,30.04,10.0,West,6.9,-,N/A,,Clear,270,2012-10-12 23:55:00
5:15 PM,66.2,48.2,52,30.04,10.0,WNW,3.5,-,N/A,,Partly Cloudy,290,2012-10-13 00:15:00
5:35 PM,66.2,48.2,52,30.05,10.0,WNW,5.8,-,N/A,,Scattered Clouds,290,2012-10-13 00:35:00
6:15 PM,66.2,50.0,56,30.05,10.0,Calm,Calm,-,N/A,,Mostly Cloudy,0,2012-10-13 01:15:00
6:35 PM,66.2,50.0,56,30.05,10.0,NE,5.8,-,N/A,,Scattered Clouds,50,2012-10-13 01:35:00
6:55 PM,66.2,50.0,56,30.06,10.0,NE,5.8,-,N/A,,Clear,40,2012-10-13 01:55:00
7:15 PM,64.4,53.6,68,30.06,10.0,ENE,6.9,-,N/A,,Clear,70,2012-10-13 02:15:00
7:35 PM,64.4,50.0,59,30.07,10.0,East,4.6,-,N/A,,Clear,90,2012-10-13 02:35:00
7:55 PM,64.4,51.8,64,30.07,10.0,NNE,3.5,-,N/A,,Clear,20,2012-10-13 02:55:00
8:15 PM,64.4,50.0,59,30.07,10.0,ENE,3.5,-,N/A,,Clear,70,2012-10-13 03:15:00
8:35 PM,62.6,50.0,63,30.07,10.0,ENE,6.9,-,N/A,,Clear,70,2012-10-13 03:35:00
9:55 PM,62.6,50.0,63,30.09,10.0,Calm,Calm,-,N/A,,Clear,0,2012-10-13 04:55:00
10:15 PM,60.8,53.6,77,30.09,10.0,ESE,3.5,-,N/A,,Clear,110,2012-10-13 05:15:00
10:35 PM,59.0,51.8,77,30.09,10.0,ESE,4.6,-,N/A,,Clear,120,2012-10-13 05:35:00
10:55 PM,60.8,51.8,72,30.10,10.0,Calm,Calm,-,N/A,,Clear,0,2012-10-13 05:55:00
11:15 PM,59.0,50.0,72,30.10,10.0,ESE,3.5,-,N/A,,Clear,110,2012-10-13 06:15:00
11:35 PM,59.0,51.8,77,30.10,10.0,Calm,Calm,-,N/A,,Clear,0,2012-10-13 06:35:00